EMB0471 GCRR-LSZS

Flight info

Callsign EMB0471
Flight time 2h 56m
Altitude 36000
Route KORAL UG5 SONSO UN871 OSDAM/N0446F380 UM985 BARPA M985 PIMOS M445 SOPET M985 BCN N870 DIBER UN870 SOSUR DCT NOSTA DCT DILEB
Aircraft E35L/M-SABDFGRW/S

Departure

Time 2026-05-06 09:02
Airport César Manrique-Lanzarote Airport (GCRR)

Arrival

Time 2026-05-06 11:59
Airport Engadin Airport (LSZS)
Time Latitude Longitude Altitude Speed Heading
2026-05-06 08:46 28.95403 -13.60485 89 ft 0 kts 297°
2026-05-06 08:49 28.95400 -13.60479 89 ft 2 kts 297°
2026-05-06 08:49 28.95393 -13.60464 88 ft 2 kts 297°
2026-05-06 08:49 28.95387 -13.60449 88 ft 2 kts 297°
2026-05-06 08:49 28.95380 -13.60434 87 ft 2 kts 297°
2026-05-06 08:50 28.95375 -13.60424 87 ft 2 kts 292°
2026-05-06 08:50 28.95375 -13.60408 86 ft 2 kts 250°
2026-05-06 08:50 28.95383 -13.60394 85 ft 1 kts 212°
2026-05-06 08:50 28.95388 -13.60391 85 ft 0 kts 206°
2026-05-06 08:53 28.95385 -13.60393 85 ft 0 kts 206°
2026-05-06 08:53 28.95377 -13.60397 86 ft 1 kts 206°
2026-05-06 08:53 28.95340 -13.60418 87 ft 11 kts 207°
2026-05-06 08:54 28.95252 -13.60469 88 ft 16 kts 207°
2026-05-06 08:54 28.95163 -13.60519 86 ft 8 kts 189°
2026-05-06 08:54 28.95117 -13.60457 78 ft 9 kts 116°
2026-05-06 08:55 28.95101 -13.60434 75 ft 12 kts 148°
2026-05-06 08:55 28.95000 -13.60466 70 ft 18 kts 207°
2026-05-06 08:55 28.94872 -13.60540 70 ft 21 kts 206°
2026-05-06 08:55 28.94718 -13.60629 62 ft 28 kts 207°
2026-05-06 08:56 28.94523 -13.60743 52 ft 28 kts 208°
2026-05-06 08:56 28.94357 -13.60839 53 ft 21 kts 207°
2026-05-06 08:56 28.94199 -13.60929 42 ft 29 kts 207°
2026-05-06 08:56 28.94031 -13.61027 41 ft 23 kts 207°
2026-05-06 08:57 28.93889 -13.61110 49 ft 22 kts 207°
2026-05-06 08:57 28.93748 -13.61192 50 ft 20 kts 207°
2026-05-06 08:57 28.93679 -13.61224 48 ft 9 kts 183°
2026-05-06 08:57 28.93647 -13.61194 45 ft 7 kts 104°
2026-05-06 08:58 28.93627 -13.61146 43 ft 9 kts 120°
2026-05-06 08:58 28.93610 -13.61108 41 ft 5 kts 111°
2026-05-06 08:58 28.93611 -13.61070 41 ft 4 kts 52°
2026-05-06 08:58 28.93629 -13.61056 41 ft 0 kts 27°
2026-05-06 08:59 28.93629 -13.61055 41 ft 0 kts 27°
2026-05-06 09:00 28.93639 -13.61050 41 ft 0 kts 27°
2026-05-06 09:00 28.93640 -13.61049 41 ft 0 kts 27°
2026-05-06 09:02 28.93647 -13.61045 41 ft 6 kts 27°
2026-05-06 09:02 28.93924 -13.60884 36 ft 88 kts 27°
2026-05-06 09:02 28.94675 -13.60448 140 ft 143 kts 28°
2026-05-06 09:02 28.95596 -13.59917 782 ft 156 kts 27°
2026-05-06 09:03 28.96586 -13.59347 1591 ft 167 kts 27°
2026-05-06 09:03 28.97512 -13.58617 2575 ft 168 kts 44°
2026-05-06 09:03 28.98439 -13.57555 2785 ft 221 kts 39°
2026-05-06 09:03 28.99742 -13.56408 3573 ft 247 kts 35°
2026-05-06 09:04 29.01114 -13.55260 4907 ft 252 kts 41°
2026-05-06 09:04 29.02183 -13.53666 6136 ft 262 kts 52°
2026-05-06 09:04 29.03303 -13.52014 7324 ft 270 kts 49°
2026-05-06 09:04 29.04477 -13.50338 8467 ft 279 kts 49°
2026-05-06 09:05 29.05697 -13.48609 9519 ft 290 kts 49°
2026-05-06 09:05 29.06992 -13.46776 10516 ft 304 kts 49°
2026-05-06 09:05 29.08339 -13.44869 11478 ft 316 kts 48°
2026-05-06 09:05 29.09714 -13.42886 12381 ft 329 kts 47°
2026-05-06 09:06 29.11515 -13.41266 13259 ft 334 kts 21°
2026-05-06 09:06 29.13752 -13.40595 14147 ft 337 kts
2026-05-06 09:06 29.15983 -13.39699 14913 ft 351 kts 24°
2026-05-06 09:06 29.18223 -13.38442 15609 ft 358 kts 21°
2026-05-06 09:07 29.20485 -13.37226 16377 ft 363 kts 21°
2026-05-06 09:07 29.22770 -13.36002 17129 ft 368 kts 21°
2026-05-06 09:07 29.25104 -13.34751 17822 ft 374 kts 21°
2026-05-06 09:07 29.27336 -13.33161 18496 ft 385 kts 40°
2026-05-06 09:08 29.29032 -13.30744 19190 ft 393 kts 56°
2026-05-06 09:08 29.30586 -13.28143 19916 ft 396 kts 53°
2026-05-06 09:08 29.32165 -13.25554 20564 ft 402 kts 54°
2026-05-06 09:08 29.33763 -13.22938 21165 ft 408 kts 54°
2026-05-06 09:09 29.35396 -13.20261 21828 ft 412 kts 53°
2026-05-06 09:09 29.37034 -13.17574 22534 ft 414 kts 53°
2026-05-06 09:09 29.38700 -13.14837 23170 ft 419 kts 53°
2026-05-06 09:09 29.40361 -13.12108 23671 ft 426 kts 54°
2026-05-06 09:10 29.42090 -13.09265 24215 ft 433 kts 53°
2026-05-06 09:10 29.43799 -13.06452 24794 ft 437 kts 54°
2026-05-06 09:10 29.45560 -13.03552 25346 ft 443 kts 53°
2026-05-06 09:10 29.47311 -13.00667 25893 ft 447 kts 54°
2026-05-06 09:11 29.49093 -12.97726 26504 ft 450 kts 53°
2026-05-06 09:11 29.50879 -12.94779 27275 ft 449 kts 54°
2026-05-06 09:11 29.52640 -12.91869 27959 ft 450 kts 54°
2026-05-06 09:11 29.54437 -12.88897 28570 ft 452 kts 54°
2026-05-06 09:12 29.56226 -12.85939 29070 ft 457 kts 54°
2026-05-06 09:12 29.58049 -12.82919 29667 ft 459 kts 54°
2026-05-06 09:12 29.59846 -12.79943 30296 ft 459 kts 54°
2026-05-06 09:12 29.61666 -12.76926 30901 ft 461 kts 54°
2026-05-06 09:13 29.63501 -12.73880 31513 ft 461 kts 54°
2026-05-06 09:13 29.65321 -12.70858 32045 ft 464 kts 55°
2026-05-06 09:13 29.67168 -12.67789 32571 ft 466 kts 54°
2026-05-06 09:13 29.68988 -12.64762 33082 ft 469 kts 54°
2026-05-06 09:14 29.70854 -12.61657 33601 ft 471 kts 54°
2026-05-06 09:14 29.72713 -12.58559 34235 ft 470 kts 54°
2026-05-06 09:14 29.74554 -12.55465 34906 ft 468 kts 55°
2026-05-06 09:14 29.76362 -12.52412 35528 ft 467 kts 55°
2026-05-06 09:15 29.78202 -12.49303 35999 ft 471 kts 55°
2026-05-06 09:15 29.80057 -12.46168 36000 ft 486 kts 55°
2026-05-06 09:15 29.81983 -12.42907 36009 ft 501 kts 55°
2026-05-06 09:15 29.83985 -12.39516 36009 ft 516 kts 55°
2026-05-06 09:16 29.86027 -12.36056 36003 ft 530 kts 55°
2026-05-06 09:16 29.90192 -12.28988 35978 ft 535 kts 56°
2026-05-06 09:17 29.94381 -12.21864 35978 ft 538 kts 55°
2026-05-06 09:17 29.98575 -12.14722 35974 ft 541 kts 56°
2026-05-06 09:18 30.02816 -12.07516 35978 ft 544 kts 55°
2026-05-06 09:18 30.04923 -12.03959 35858 ft 540 kts 55°
2026-05-06 09:18 30.07042 -12.00376 35963 ft 540 kts 55°
2026-05-06 09:19 30.11272 -11.93218 35966 ft 542 kts 55°
2026-05-06 09:19 30.15504 -11.86042 35964 ft 543 kts 55°
2026-05-06 09:20 30.19764 -11.78805 35961 ft 543 kts 56°
2026-05-06 09:20 30.23971 -11.71645 35964 ft 543 kts 55°
2026-05-06 09:21 30.28220 -11.64402 35971 ft 542 kts 55°
2026-05-06 09:21 30.32422 -11.57225 35976 ft 541 kts 55°
2026-05-06 09:22 30.36640 -11.50009 35974 ft 540 kts 55°
2026-05-06 09:22 30.40842 -11.42807 35970 ft 539 kts 55°
2026-05-06 09:23 30.45014 -11.35643 35979 ft 538 kts 55°
2026-05-06 09:23 30.49247 -11.28363 36016 ft 543 kts 56°
2026-05-06 09:24 30.53449 -11.21120 35958 ft 542 kts 56°
2026-05-06 09:24 30.57655 -11.13860 35959 ft 541 kts 56°
2026-05-06 09:25 30.61839 -11.06623 35954 ft 540 kts 56°
2026-05-06 09:25 30.65988 -10.99433 35966 ft 539 kts 55°
2026-05-06 09:26 30.70152 -10.92203 35966 ft 538 kts 55°
2026-05-06 09:26 30.74307 -10.84980 35973 ft 538 kts 56°
2026-05-06 09:27 30.78477 -10.77714 35961 ft 539 kts 56°
2026-05-06 09:27 30.82618 -10.70485 35962 ft 539 kts 55°
2026-05-06 09:28 30.86757 -10.63248 35953 ft 540 kts 56°
2026-05-06 09:28 30.90908 -10.55975 35960 ft 541 kts 56°
2026-05-06 09:29 30.95056 -10.48696 35968 ft 541 kts 55°
2026-05-06 09:29 30.99231 -10.41354 35962 ft 543 kts 55°
2026-05-06 09:30 31.03373 -10.34057 35964 ft 544 kts 56°
2026-05-06 09:30 31.07562 -10.26664 35945 ft 544 kts 56°
2026-05-06 09:31 31.11716 -10.19318 35923 ft 544 kts 56°
2026-05-06 09:31 31.15858 -10.11980 35931 ft 542 kts 56°
2026-05-06 09:32 31.19996 -10.04634 35924 ft 542 kts 56°
2026-05-06 09:32 31.22079 -10.00932 35702 ft 540 kts 56°
2026-05-06 09:32 31.24116 -9.97308 35933 ft 534 kts 56°
2026-05-06 09:33 31.28183 -9.90063 35846 ft 536 kts 56°
2026-05-06 09:33 31.32253 -9.82796 36182 ft 535 kts 56°
2026-05-06 09:33 31.34302 -9.79137 35691 ft 539 kts 56°
2026-05-06 09:34 31.36331 -9.75502 35897 ft 534 kts 56°
2026-05-06 09:34 31.38443 -9.71938 36003 ft 538 kts 50°
2026-05-06 09:34 31.40950 -9.68677 35979 ft 534 kts 41°
2026-05-06 09:34 31.43708 -9.65872 36155 ft 527 kts 33°
2026-05-06 09:35 31.46771 -9.63488 35824 ft 519 kts 23°
2026-05-06 09:35 31.49921 -9.61534 36103 ft 521 kts 23°
2026-05-06 09:35 31.53064 -9.59352 35987 ft 524 kts 25°
2026-05-06 09:36 31.59295 -9.54880 35977 ft 525 kts 26°
2026-05-06 09:36 31.65521 -9.50380 35974 ft 525 kts 26°
2026-05-06 09:37 31.71719 -9.45890 35977 ft 526 kts 26°
2026-05-06 09:37 31.77971 -9.41354 35977 ft 526 kts 26°
2026-05-06 09:38 31.84184 -9.36839 35982 ft 526 kts 26°
2026-05-06 09:38 31.90405 -9.32311 35964 ft 526 kts 27°
2026-05-06 09:39 31.96614 -9.27785 35966 ft 526 kts 27°
2026-05-06 09:39 32.02835 -9.23242 35968 ft 525 kts 27°
2026-05-06 09:40 32.09041 -9.18703 35868 ft 519 kts 27°
2026-05-06 09:40 32.18217 -9.11978 35970 ft 517 kts 27°
2026-05-06 09:41 32.24348 -9.07476 35972 ft 516 kts 26°
2026-05-06 09:41 32.30422 -9.03009 35973 ft 516 kts 27°
2026-05-06 09:42 32.36516 -8.98519 35973 ft 515 kts 27°
2026-05-06 09:42 32.42582 -8.94044 35983 ft 515 kts 27°
2026-05-06 09:43 32.48665 -8.89547 35974 ft 515 kts 27°
2026-05-06 09:43 32.54729 -8.85059 35981 ft 514 kts 27°
2026-05-06 09:44 32.60783 -8.80570 35998 ft 514 kts 27°
2026-05-06 09:44 32.66853 -8.76062 35983 ft 514 kts 27°
2026-05-06 09:45 32.72894 -8.71568 35986 ft 514 kts 27°
2026-05-06 09:45 32.78941 -8.67063 35981 ft 514 kts 27°
2026-05-06 09:46 32.85000 -8.62542 35980 ft 513 kts 27°
2026-05-06 09:46 32.91032 -8.58033 35993 ft 513 kts 27°
2026-05-06 09:47 32.97104 -8.53487 35984 ft 513 kts 27°
2026-05-06 09:47 33.03133 -8.48965 35989 ft 513 kts 27°
2026-05-06 09:48 33.09172 -8.44429 36007 ft 512 kts 28°
2026-05-06 09:48 33.15180 -8.39908 35985 ft 512 kts 27°
2026-05-06 09:49 33.21197 -8.35378 35994 ft 512 kts 27°
2026-05-06 09:49 33.27251 -8.30827 35964 ft 511 kts 28°
2026-05-06 09:50 33.33266 -8.26296 35980 ft 510 kts 28°
2026-05-06 09:50 33.39248 -8.21782 35970 ft 508 kts 28°
2026-05-06 09:51 33.45197 -8.17287 35965 ft 507 kts 28°
2026-05-06 09:51 33.51173 -8.12762 35985 ft 506 kts 28°
2026-05-06 09:52 33.57119 -8.08255 35951 ft 506 kts 29°
2026-05-06 09:52 33.63076 -8.03731 35963 ft 506 kts 28°
2026-05-06 09:53 33.69036 -7.99197 35971 ft 506 kts 29°
2026-05-06 09:53 33.74936 -7.94700 35974 ft 506 kts 29°
2026-05-06 09:54 33.80893 -7.90154 35979 ft 504 kts 29°
2026-05-06 09:54 33.86798 -7.85639 35966 ft 502 kts 29°
2026-05-06 09:55 33.92665 -7.81146 35987 ft 500 kts 29°
2026-05-06 09:55 33.98522 -7.76653 35978 ft 498 kts 29°
2026-05-06 09:56 34.04304 -7.72210 35975 ft 496 kts 29°
2026-05-06 09:56 34.10145 -7.67715 35972 ft 494 kts 29°
2026-05-06 09:57 34.15908 -7.63272 35971 ft 492 kts 29°
2026-05-06 09:57 34.21672 -7.58822 35977 ft 490 kts 29°
2026-05-06 09:58 34.27395 -7.54396 35969 ft 489 kts 29°
2026-05-06 09:58 34.33099 -7.49977 35966 ft 488 kts 29°
2026-05-06 09:59 34.38813 -7.45543 35965 ft 487 kts 29°
2026-05-06 09:59 34.44499 -7.41124 35971 ft 486 kts 29°
2026-05-06 10:00 34.50187 -7.36696 35965 ft 485 kts 29°
2026-05-06 10:00 34.55874 -7.32261 35962 ft 485 kts 30°
2026-05-06 10:01 34.61533 -7.27841 35961 ft 484 kts 30°
2026-05-06 10:01 34.67169 -7.23432 35949 ft 483 kts 29°
2026-05-06 10:02 34.72820 -7.19003 35956 ft 483 kts 30°
2026-05-06 10:02 34.78441 -7.14591 35945 ft 482 kts 29°
2026-05-06 10:03 34.84095 -7.10146 35951 ft 482 kts 29°
2026-05-06 10:03 34.89711 -7.05723 35945 ft 482 kts 29°
2026-05-06 10:04 34.95307 -7.01308 35952 ft 481 kts 29°
2026-05-06 10:04 35.00945 -6.96854 35952 ft 481 kts 29°
2026-05-06 10:05 35.06552 -6.92416 35950 ft 481 kts 30°
2026-05-06 10:05 35.12181 -6.87954 35944 ft 481 kts 29°
2026-05-06 10:06 35.17781 -6.83506 35946 ft 480 kts 30°
2026-05-06 10:06 35.23373 -6.79058 35946 ft 480 kts 29°
2026-05-06 10:07 35.28944 -6.74620 35948 ft 480 kts 29°
2026-05-06 10:07 35.34198 -6.69532 35950 ft 485 kts 44°
2026-05-06 10:08 35.38183 -6.62891 35953 ft 487 kts 61°
2026-05-06 10:08 35.41491 -6.55666 35949 ft 487 kts 59°
2026-05-06 10:09 35.44913 -6.48473 35948 ft 488 kts 57°
2026-05-06 10:09 35.48492 -6.41449 35952 ft 488 kts 57°
2026-05-06 10:10 35.52054 -6.34419 35949 ft 488 kts 57°
2026-05-06 10:10 35.55645 -6.27316 35943 ft 488 kts 57°
2026-05-06 10:11 35.59214 -6.20240 35945 ft 488 kts 57°
2026-05-06 10:11 35.62791 -6.13133 35949 ft 488 kts 57°
2026-05-06 10:12 35.66346 -6.06058 35951 ft 488 kts 57°
2026-05-06 10:12 35.69923 -5.98921 35950 ft 488 kts 57°
2026-05-06 10:13 35.73443 -5.91812 35950 ft 489 kts 61°
2026-05-06 10:13 35.76431 -5.84286 35952 ft 489 kts 64°
2026-05-06 10:14 35.79374 -5.76791 35950 ft 490 kts 64°
2026-05-06 10:14 35.82348 -5.69199 35946 ft 490 kts 64°
2026-05-06 10:15 35.85363 -5.61674 35948 ft 491 kts 63°
2026-05-06 10:15 35.88389 -5.54200 35946 ft 491 kts 63°
2026-05-06 10:16 35.91443 -5.46639 35944 ft 492 kts 63°
2026-05-06 10:16 35.94487 -5.39084 35943 ft 493 kts 63°
2026-05-06 10:17 35.97519 -5.31543 35939 ft 493 kts 63°
2026-05-06 10:17 36.00571 -5.23937 35939 ft 493 kts 63°
2026-05-06 10:18 36.03725 -5.16437 35928 ft 493 kts 62°
2026-05-06 10:18 36.06867 -5.08941 35929 ft 493 kts 62°
2026-05-06 10:19 36.10025 -5.01385 35928 ft 494 kts 62°
2026-05-06 10:19 36.13172 -4.93838 35921 ft 494 kts 62°
2026-05-06 10:20 36.16935 -4.86807 35922 ft 490 kts 46°
2026-05-06 10:20 36.21673 -4.80792 35923 ft 489 kts 43°
2026-05-06 10:21 36.26380 -4.74731 35918 ft 489 kts 43°
2026-05-06 10:21 36.31083 -4.68649 35918 ft 489 kts 43°
2026-05-06 10:22 36.35765 -4.62582 35922 ft 490 kts 43°
2026-05-06 10:22 36.40464 -4.56482 35928 ft 490 kts 43°
2026-05-06 10:23 36.45174 -4.50356 35915 ft 491 kts 43°
2026-05-06 10:23 36.49907 -4.44189 35921 ft 491 kts 43°
2026-05-06 10:24 36.54610 -4.38047 35922 ft 492 kts 43°
2026-05-06 10:24 36.59320 -4.31887 35917 ft 492 kts 44°
2026-05-06 10:25 36.64031 -4.25713 35910 ft 492 kts 44°
2026-05-06 10:25 36.68747 -4.19521 35914 ft 492 kts 44°
2026-05-06 10:26 36.73450 -4.13334 35920 ft 492 kts 44°
2026-05-06 10:26 36.78143 -4.07148 35920 ft 493 kts 44°
2026-05-06 10:27 36.82836 -4.00951 35929 ft 493 kts 44°
2026-05-06 10:27 36.87542 -3.94725 35949 ft 493 kts 44°
2026-05-06 10:28 36.92244 -3.88492 35959 ft 493 kts 44°
2026-05-06 10:28 36.96938 -3.82257 35951 ft 494 kts 44°
2026-05-06 10:29 37.01630 -3.76013 35961 ft 494 kts 44°
2026-05-06 10:29 37.06329 -3.69748 35958 ft 495 kts 44°
2026-05-06 10:30 37.11050 -3.63443 35962 ft 495 kts 43°
2026-05-06 10:30 37.15848 -3.57253 35961 ft 494 kts 43°
2026-05-06 10:31 37.20636 -3.51069 35962 ft 495 kts 42°
2026-05-06 10:31 37.25424 -3.44873 35972 ft 495 kts 42°
2026-05-06 10:32 37.30212 -3.38665 35965 ft 495 kts 43°
2026-05-06 10:32 37.35027 -3.32408 35963 ft 495 kts 43°
2026-05-06 10:33 37.39813 -3.26178 35961 ft 495 kts 43°
2026-05-06 10:33 37.44575 -3.19967 35962 ft 495 kts 43°
2026-05-06 10:34 37.49326 -3.13758 35964 ft 494 kts 43°
2026-05-06 10:34 37.54101 -3.07505 35965 ft 494 kts 43°
2026-05-06 10:35 37.58842 -3.01285 35967 ft 494 kts 43°
2026-05-06 10:35 37.63593 -2.95042 35972 ft 494 kts 43°
2026-05-06 10:36 37.68345 -2.88784 35968 ft 495 kts 43°
2026-05-06 10:36 37.73111 -2.82496 35971 ft 495 kts 43°
2026-05-06 10:37 37.77857 -2.76223 35972 ft 495 kts 43°
2026-05-06 10:37 37.82609 -2.69928 35976 ft 496 kts 43°
2026-05-06 10:38 37.87383 -2.63591 35980 ft 496 kts 43°
2026-05-06 10:38 37.89748 -2.60448 36123 ft 497 kts 43°
2026-05-06 10:38 37.92141 -2.57264 36366 ft 506 kts 43°
2026-05-06 10:39 37.94595 -2.53995 36823 ft 512 kts 43°
2026-05-06 10:39 37.97033 -2.50744 37409 ft 514 kts 43°
2026-05-06 10:39 37.99481 -2.47477 37911 ft 515 kts 43°
2026-05-06 10:39 38.01962 -2.44162 37968 ft 512 kts 43°
2026-05-06 10:40 38.06814 -2.37669 37980 ft 507 kts 43°
2026-05-06 10:40 38.11676 -2.31150 37961 ft 503 kts 44°
2026-05-06 10:41 38.16479 -2.24695 37964 ft 499 kts 44°
2026-05-06 10:41 38.21179 -2.18277 37959 ft 497 kts 47°
2026-05-06 10:42 38.25439 -2.11405 37970 ft 494 kts 49°
2026-05-06 10:42 38.29689 -2.04538 37963 ft 492 kts 49°
2026-05-06 10:43 38.33895 -1.97727 37964 ft 490 kts 49°
2026-05-06 10:44 38.40200 -1.87493 37962 ft 489 kts 49°
2026-05-06 10:44 38.48222 -1.74427 37943 ft 489 kts 49°
2026-05-06 10:45 38.56550 -1.60804 37962 ft 488 kts 49°
2026-05-06 10:45 38.64862 -1.47152 37966 ft 488 kts 49°
2026-05-06 10:46 38.73210 -1.33382 37961 ft 488 kts 50°
2026-05-06 10:46 38.81458 -1.19726 37950 ft 488 kts 50°
2026-05-06 10:47 38.89771 -1.05903 37960 ft 488 kts 50°
2026-05-06 10:47 38.98042 -0.92093 37965 ft 488 kts 50°
2026-05-06 10:48 39.06288 -0.78281 37950 ft 488 kts 48°
2026-05-06 10:48 39.16034 -0.66381 37954 ft 477 kts 30°
2026-05-06 10:49 39.26689 -0.56239 37946 ft 480 kts 38°
2026-05-06 10:49 39.37197 -0.45765 37958 ft 477 kts 32°
2026-05-06 10:50 39.47827 -0.35413 37961 ft 477 kts 32°
2026-05-06 10:50 39.58416 -0.25057 37938 ft 477 kts 33°
2026-05-06 10:51 39.69004 -0.14661 37931 ft 477 kts 33°
2026-05-06 10:51 39.79594 -0.04223 37942 ft 476 kts 33°
2026-05-06 10:52 39.89480 0.07211 37944 ft 481 kts 47°
2026-05-06 10:52 39.98262 0.20199 37955 ft 479 kts 44°
2026-05-06 10:53 40.07377 0.32936 37951 ft 479 kts 44°
2026-05-06 10:53 40.16525 0.45763 37957 ft 480 kts 44°
2026-05-06 10:54 40.25576 0.58505 37941 ft 480 kts 44°
2026-05-06 10:54 40.34671 0.71372 37929 ft 480 kts 45°
2026-05-06 10:55 40.43642 0.84117 37932 ft 479 kts 45°
2026-05-06 10:55 40.52682 0.97014 37938 ft 479 kts 45°
2026-05-06 10:56 40.61682 1.09924 37954 ft 478 kts 45°
2026-05-06 10:56 40.70590 1.22760 37954 ft 478 kts 45°
2026-05-06 10:57 40.79561 1.35723 37963 ft 478 kts 45°
2026-05-06 10:57 40.88467 1.48653 37943 ft 479 kts 45°
2026-05-06 10:58 40.97390 1.61668 37952 ft 479 kts 45°
2026-05-06 10:58 41.06363 1.74814 37943 ft 479 kts 46°
2026-05-06 10:59 41.15314 1.87980 37941 ft 478 kts 46°
2026-05-06 10:59 41.24180 2.01080 37949 ft 478 kts 46°
2026-05-06 11:00 41.32771 2.14651 37967 ft 479 kts 55°
2026-05-06 11:00 41.37005 2.25059 37959 ft 479 kts 68°
2026-05-06 11:00 41.38501 2.30561 37966 ft 479 kts 74°
2026-05-06 11:01 41.42984 2.47248 37972 ft 479 kts 62°
2026-05-06 11:01 41.48845 2.63213 37950 ft 480 kts 65°
2026-05-06 11:02 41.54358 2.79351 37934 ft 480 kts 66°
2026-05-06 11:02 41.59874 2.95597 37920 ft 480 kts 66°
2026-05-06 11:03 41.65379 3.11905 37951 ft 480 kts 66°
2026-05-06 11:03 41.70821 3.28121 37941 ft 481 kts 66°
2026-05-06 11:04 41.76268 3.44449 37946 ft 481 kts 66°
2026-05-06 11:04 41.81670 3.60740 37956 ft 482 kts 66°
2026-05-06 11:05 41.87107 3.77230 37937 ft 482 kts 68°
2026-05-06 11:05 41.92473 3.93606 37944 ft 482 kts 68°
2026-05-06 11:06 41.97844 4.10101 37954 ft 482 kts 68°
2026-05-06 11:06 42.03162 4.26537 37969 ft 483 kts 68°
2026-05-06 11:07 42.08806 4.42971 37972 ft 485 kts 60°
2026-05-06 11:07 42.15094 4.54209 37947 ft 484 kts 41°
2026-05-06 11:08 42.20573 4.59361 37962 ft 479 kts 23°
2026-05-06 11:08 42.26529 4.63333 37947 ft 482 kts 31°
2026-05-06 11:09 42.31565 4.69348 37938 ft 484 kts 49°
2026-05-06 11:09 42.36356 4.75705 37937 ft 483 kts 41°
2026-05-06 11:10 42.41339 4.81798 37928 ft 484 kts 41°
2026-05-06 11:10 42.46325 4.87875 37931 ft 484 kts 41°
2026-05-06 11:11 42.51301 4.93952 37933 ft 484 kts 41°
2026-05-06 11:11 42.56132 5.00286 37932 ft 485 kts 50°
2026-05-06 11:12 42.59883 5.07788 37946 ft 484 kts 58°
2026-05-06 11:12 42.63548 5.15504 37935 ft 485 kts 58°
2026-05-06 11:13 42.67185 5.23161 37929 ft 486 kts 58°
2026-05-06 11:13 42.70847 5.30888 37916 ft 487 kts 58°
2026-05-06 11:14 42.74481 5.38578 37935 ft 487 kts 58°
2026-05-06 11:14 42.78155 5.46372 37925 ft 489 kts 58°
2026-05-06 11:15 42.81798 5.54117 37937 ft 489 kts 58°
2026-05-06 11:15 42.85460 5.61928 37911 ft 490 kts 58°
2026-05-06 11:16 42.89134 5.69782 37914 ft 490 kts 59°
2026-05-06 11:16 42.92772 5.77580 37895 ft 491 kts 59°
2026-05-06 11:17 42.96416 5.85413 37899 ft 491 kts 59°
2026-05-06 11:17 43.00064 5.93275 37910 ft 492 kts 59°
2026-05-06 11:18 43.03716 6.01167 37915 ft 492 kts 59°
2026-05-06 11:18 43.07370 6.09084 37913 ft 493 kts 59°
2026-05-06 11:19 43.11033 6.17040 37917 ft 494 kts 59°
2026-05-06 11:19 43.14690 6.25008 37892 ft 495 kts 59°
2026-05-06 11:20 43.18929 6.34267 37910 ft 495 kts 59°
2026-05-06 11:20 43.21975 6.40942 37894 ft 495 kts 59°
2026-05-06 11:21 43.25607 6.48918 37891 ft 496 kts 59°
2026-05-06 11:21 43.29254 6.56948 37876 ft 497 kts 59°
2026-05-06 11:22 43.32898 6.64995 37861 ft 497 kts 59°
2026-05-06 11:22 43.36549 6.73081 37880 ft 497 kts 60°
2026-05-06 11:23 43.40161 6.81099 37861 ft 497 kts 60°
2026-05-06 11:23 43.43791 6.89180 37867 ft 498 kts 60°
2026-05-06 11:24 43.47416 6.97275 37870 ft 498 kts 60°
2026-05-06 11:24 43.51054 7.05421 37862 ft 499 kts 60°
2026-05-06 11:25 43.54659 7.13514 37871 ft 499 kts 60°
2026-05-06 11:25 43.58275 7.21656 37872 ft 499 kts 60°
2026-05-06 11:26 43.61889 7.29816 37885 ft 500 kts 60°
2026-05-06 11:26 43.65522 7.38040 37872 ft 500 kts 60°
2026-05-06 11:27 43.69107 7.46181 37877 ft 501 kts 60°
2026-05-06 11:27 43.72741 7.54456 37859 ft 501 kts 60°
2026-05-06 11:28 43.76340 7.62675 37858 ft 502 kts 60°
2026-05-06 11:28 43.79996 7.70906 37863 ft 503 kts 57°
2026-05-06 11:29 43.84714 7.78048 37869 ft 505 kts 39°
2026-05-06 11:29 43.90620 7.83190 37864 ft 501 kts 25°
2026-05-06 11:30 43.96659 7.88026 37856 ft 503 kts 30°
2026-05-06 11:30 44.02618 7.93088 37879 ft 503 kts 30°
2026-05-06 11:31 44.08559 7.98161 37865 ft 504 kts 30°
2026-05-06 11:31 44.14571 8.03309 37845 ft 504 kts 30°
2026-05-06 11:32 44.20570 8.08458 37853 ft 504 kts 30°
2026-05-06 11:32 44.32221 8.18493 37831 ft 503 kts 30°
2026-05-06 11:33 44.56291 8.39377 37850 ft 503 kts 30°
2026-05-06 11:33 44.80302 8.60416 37867 ft 504 kts 30°
2026-05-06 11:34 44.88444 8.67601 37853 ft 504 kts 31°
2026-05-06 11:34 44.94354 8.72829 37822 ft 504 kts 31°
2026-05-06 11:35 45.00283 8.78087 37854 ft 504 kts 31°
2026-05-06 11:35 45.06211 8.83357 37833 ft 504 kts 31°
2026-05-06 11:36 45.12163 8.88663 37851 ft 503 kts 31°
2026-05-06 11:36 45.18090 8.93958 37848 ft 502 kts 31°
2026-05-06 11:37 45.23952 8.99209 37847 ft 502 kts 31°
2026-05-06 11:37 45.29853 9.04508 37838 ft 502 kts 30°
2026-05-06 11:38 45.35773 9.09837 37858 ft 500 kts 31°
2026-05-06 11:38 45.41657 9.15147 37860 ft 501 kts 31°
2026-05-06 11:39 45.47543 9.20473 37866 ft 503 kts 31°
2026-05-06 11:39 45.53400 9.25785 37857 ft 493 kts 31°
2026-05-06 11:39 45.56332 9.28450 37269 ft 497 kts 31°
2026-05-06 11:40 45.59227 9.31083 36649 ft 501 kts 31°
2026-05-06 11:40 45.62198 9.33789 36112 ft 505 kts 31°
2026-05-06 11:40 45.65154 9.36485 35625 ft 508 kts 31°
2026-05-06 11:40 45.68122 9.39197 35128 ft 508 kts 31°
2026-05-06 11:41 45.71093 9.41914 34652 ft 505 kts 31°
2026-05-06 11:41 45.74021 9.44595 34126 ft 503 kts 31°
2026-05-06 11:41 45.76986 9.47314 33563 ft 500 kts 31°
2026-05-06 11:41 45.79899 9.49987 33008 ft 497 kts 31°
2026-05-06 11:42 45.82814 9.52666 32484 ft 493 kts 31°
2026-05-06 11:42 45.85680 9.55303 31985 ft 489 kts 31°
2026-05-06 11:42 45.88530 9.57930 31479 ft 485 kts 31°
2026-05-06 11:42 45.91352 9.60533 30982 ft 481 kts 30°
2026-05-06 11:43 45.94149 9.63116 30505 ft 477 kts 31°
2026-05-06 11:43 45.96926 9.65684 30009 ft 472 kts 32°
2026-05-06 11:43 45.99661 9.68225 29516 ft 468 kts 29°
2026-05-06 11:44 46.05478 9.72146 28525 ft 458 kts 24°
2026-05-06 11:44 46.08308 9.74132 28065 ft 451 kts 25°
2026-05-06 11:44 46.11086 9.76161 27621 ft 444 kts 25°
2026-05-06 11:44 46.13849 9.78189 27133 ft 438 kts 25°
2026-05-06 11:45 46.16521 9.80152 26637 ft 433 kts 25°
2026-05-06 11:45 46.19210 9.82130 26147 ft 427 kts 26°
2026-05-06 11:45 46.21840 9.84068 25671 ft 422 kts 26°
2026-05-06 11:45 46.24412 9.85964 25196 ft 418 kts 26°
2026-05-06 11:46 46.26991 9.87867 24700 ft 414 kts 26°
2026-05-06 11:46 46.29556 9.89763 24183 ft 412 kts 26°
2026-05-06 11:46 46.32102 9.91647 23655 ft 411 kts 26°
2026-05-06 11:46 46.34659 9.93540 23123 ft 410 kts 26°
2026-05-06 11:47 46.37152 9.95388 22567 ft 406 kts 26°
2026-05-06 11:47 46.39650 9.97241 22002 ft 403 kts 26°
2026-05-06 11:47 46.42144 9.99094 21432 ft 399 kts 27°
2026-05-06 11:47 46.44597 10.00917 20823 ft 395 kts 27°
2026-05-06 11:48 46.46991 10.02699 20243 ft 389 kts 27°
2026-05-06 11:48 46.49403 10.04496 19654 ft 384 kts 27°
2026-05-06 11:48 46.51730 10.06231 19089 ft 379 kts 27°
2026-05-06 11:48 46.54071 10.07979 18531 ft 373 kts 27°
2026-05-06 11:49 46.56342 10.09700 17976 ft 368 kts 31°
2026-05-06 11:49 46.58338 10.11921 17436 ft 362 kts 42°
2026-05-06 11:49 46.60260 10.14294 16886 ft 358 kts 42°
2026-05-06 11:49 46.62120 10.16589 16461 ft 351 kts 42°
2026-05-06 11:50 46.64597 10.19639 15881 ft 343 kts 42°
2026-05-06 11:50 46.65798 10.21122 15598 ft 339 kts 42°
2026-05-06 11:50 46.67589 10.23334 15172 ft 335 kts 42°
2026-05-06 11:50 46.69388 10.25436 14755 ft 330 kts 38°
2026-05-06 11:51 46.71194 10.27385 14381 ft 325 kts 38°
2026-05-06 11:51 46.73072 10.29195 14048 ft 318 kts 23°
2026-05-06 11:51 46.75141 10.29761 14021 ft 298 kts 354°
2026-05-06 11:51 46.77023 10.28922 14011 ft 272 kts 322°
2026-05-06 11:52 46.78229 10.27008 14014 ft 242 kts 288°
2026-05-06 11:52 46.78458 10.24767 14022 ft 212 kts 251°
2026-05-06 11:52 46.77772 10.23074 14016 ft 186 kts 213°
2026-05-06 11:52 46.76706 10.22148 13997 ft 174 kts 208°
2026-05-06 11:53 46.75738 10.21076 14018 ft 178 kts 224°
2026-05-06 11:53 46.74960 10.19674 14003 ft 178 kts 230°
2026-05-06 11:53 46.74284 10.18175 13922 ft 181 kts 233°
2026-05-06 11:53 46.73568 10.16484 13532 ft 205 kts 234°
2026-05-06 11:54 46.72728 10.14710 13107 ft 221 kts 223°
2026-05-06 11:54 46.71610 10.13146 12714 ft 226 kts 222°
2026-05-06 11:54 46.70486 10.11543 12221 ft 227 kts 221°
2026-05-06 11:54 46.69363 10.09943 11724 ft 228 kts 222°
2026-05-06 11:55 46.68230 10.08331 11215 ft 230 kts 221°
2026-05-06 11:55 46.67078 10.06693 10692 ft 233 kts 222°
2026-05-06 11:55 46.65918 10.05043 10222 ft 233 kts 222°
2026-05-06 11:55 46.64771 10.03415 9802 ft 232 kts 222°
2026-05-06 11:56 46.63618 10.01779 9381 ft 231 kts 222°
2026-05-06 11:56 46.62484 10.00162 8958 ft 223 kts 223°
2026-05-06 11:56 46.61473 9.98691 8516 ft 196 kts 223°
2026-05-06 11:56 46.60640 9.97260 8103 ft 170 kts 230°
2026-05-06 11:57 46.59951 9.95949 7565 ft 160 kts 230°
2026-05-06 11:57 46.59285 9.94698 7239 ft 157 kts 229°
2026-05-06 11:57 46.58572 9.93544 7058 ft 152 kts 222°
2026-05-06 11:57 46.57825 9.92435 6765 ft 151 kts 223°
2026-05-06 11:58 46.57397 9.91827 6612 ft 143 kts 220°
2026-05-06 11:58 46.56861 9.91212 6380 ft 144 kts 214°
2026-05-06 11:58 46.55992 9.90479 6182 ft 139 kts 204°
2026-05-06 11:58 46.55127 9.89781 5939 ft 143 kts 206°
2026-05-06 11:59 46.54260 9.89070 5668 ft 141 kts 204°
2026-05-06 11:59 46.53477 9.88433 5600 ft 103 kts 209°
2026-05-06 11:59 46.53077 9.88113 5607 ft 33 kts 208°
2026-05-06 11:59 46.53009 9.88061 5608 ft 4 kts 207°
2026-05-06 12:00 46.52983 9.88041 5609 ft 3 kts 214°
2026-05-06 12:00 46.52979 9.88007 5609 ft 2 kts 289°
2026-05-06 12:00 46.52992 9.87971 5609 ft 5 kts 300°
2026-05-06 12:00 46.53033 9.87933 5609 ft 9 kts
2026-05-06 12:01 46.53072 9.87962 5608 ft 6 kts 30°
2026-05-06 12:01 46.53084 9.87984 5608 ft 2 kts 101°
2026-05-06 12:01 46.53076 9.87995 5608 ft 0 kts 181°
2026-05-06 12:01 46.53075 9.87987 5608 ft 1 kts 297°
2026-05-06 12:02 46.53074 9.87990 5608 ft 0 kts 297°
2026-05-06 12:02 46.53071 9.87997 5608 ft 0 kts 298°